Time,TemperatureF,DewpointF,PressureIn,WindDirection,WindDirectionDegrees,WindSpeedMPH,WindSpeedGustMPH,Humidity,HourlyPrecipIn,Conditions,Clouds,dailyrainin,SoftwareType,DateUTC
2013-03-17 00:04:00,60.0,56.4,30.11,North,-999,0.0,0.0,88,0.00,,,-99.99,WeatherLink 5.5,2013-03-17 04:04:00,
2013-03-17 00:10:00,59.9,56.6,30.11,North,-999,0.0,0.0,89,0.00,,,-99.99,WeatherLink 5.5,2013-03-17 04:10:00,
2013-03-17 00:15:00,59.6,57.0,30.11,North,-999,0.0,0.0,91,0.00,,,-99.99,WeatherLink 5.5,2013-03-17 04:15:00,
2013-03-17 00:19:00,59.7,56.8,30.11,North,-999,0.0,0.0,90,0.00,,,-99.99,WeatherLink 5.5,2013-03-17 04:19:00,
2013-03-17 00:25:00,59.3,57.0,30.11,North,-999,0.0,0.0,92,0.00,,,-99.99,WeatherLink 5.5,2013-03-17 04:25:00,
2013-03-17 00:34:00,59.2,57.2,30.11,North,-999,0.0,0.0,93,0.00,,,-99.99,WeatherLink 5.5,2013-03-17 04:34:00,
2013-03-17 00:44:00,59.0,57.3,30.10,North,-999,0.0,0.0,94,0.00,,,-99.99,WeatherLink 5.5,2013-03-17 04:44:00,
2013-03-17 00:45:00,58.9,57.8,30.10,North,-999,0.0,0.0,96,0.00,,,-99.99,WeatherLink 5.5,2013-03-17 04:45:00,
2013-03-17 00:55:00,58.9,58.1,30.10,North,-999,0.0,0.0,97,0.00,,,-99.99,WeatherLink 5.5,2013-03-17 04:55:00,
2013-03-17 01:00:00,58.6,58.3,30.10,North,-999,0.0,0.0,99,0.00,,,-99.99,WeatherLink 5.5,2013-03-17 05:00:00,
2013-03-17 01:04:00,58.7,58.1,30.10,North,-999,0.0,0.0,98,0.00,,,-99.99,WeatherLink 5.5,2013-03-17 05:04:00,
2013-03-17 01:10:00,58.5,58.5,30.10,North,-999,0.0,0.0,100,0.00,,,-99.99,WeatherLink 5.5,2013-03-17 05:10:00,
2013-03-17 01:19:00,58.4,58.4,30.10,North,-999,0.0,0.0,100,0.00,,,-99.99,WeatherLink 5.5,2013-03-17 05:19:00,
2013-03-17 01:20:00,58.2,58.2,30.09,North,-999,0.0,0.0,100,0.00,,,-99.99,WeatherLink 5.5,2013-03-17 05:20:00,
2013-03-17 01:25:00,58.1,58.1,30.09,North,-999,0.0,0.0,100,0.00,,,-99.99,WeatherLink 5.5,2013-03-17 05:25:00,
2013-03-17 01:30:00,58.1,58.1,30.09,North,-999,0.0,0.0,100,0.00,,,-99.99,WeatherLink 5.5,2013-03-17 05:30:00,
2013-03-17 01:39:00,58.0,58.0,30.09,North,-999,0.0,0.0,100,0.00,,,-99.99,WeatherLink 5.5,2013-03-17 05:39:00,
2013-03-17 01:40:00,57.8,57.8,30.09,North,-999,0.0,0.0,100,0.00,,,-99.99,WeatherLink 5.5,2013-03-17 05:40:00,
2013-03-17 01:50:00,57.8,57.8,30.09,North,-999,0.0,0.0,100,0.00,,,-99.99,WeatherLink 5.5,2013-03-17 05:50:00,
2013-03-17 01:59:00,57.7,57.7,30.09,North,-999,0.0,0.0,100,0.00,,,-99.99,WeatherLink 5.5,2013-03-17 05:59:00,
2013-03-17 02:05:00,57.7,57.7,30.08,North,-999,0.0,0.0,100,0.00,,,-99.99,WeatherLink 5.5,2013-03-17 06:05:00,
2013-03-17 02:10:00,57.4,57.4,30.08,North,-999,0.0,0.0,100,0.00,,,-99.99,WeatherLink 5.5,2013-03-17 06:10:00,
2013-03-17 02:15:00,57.4,57.4,30.08,North,-999,0.0,0.0,100,0.00,,,-99.99,WeatherLink 5.5,2013-03-17 06:15:00,
2013-03-17 02:24:00,57.3,57.3,30.08,North,-999,0.0,0.0,100,0.00,,,-99.99,WeatherLink 5.5,2013-03-17 06:24:00,
2013-03-17 02:30:00,57.1,57.1,30.08,North,-999,0.0,0.0,100,0.00,,,-99.99,WeatherLink 5.5,2013-03-17 06:30:00,
2013-03-17 02:34:00,57.1,57.1,30.08,North,-999,0.0,0.0,100,0.00,,,-99.99,WeatherLink 5.5,2013-03-17 06:34:00,
2013-03-17 02:40:00,57.0,57.0,30.07,North,-999,0.0,0.0,100,0.00,,,-99.99,WeatherLink 5.5,2013-03-17 06:40:00,
2013-03-17 02:45:00,56.9,56.9,30.07,North,-999,0.0,0.0,100,0.00,,,-99.99,WeatherLink 5.5,2013-03-17 06:45:00,
2013-03-17 02:49:00,56.9,56.9,30.07,North,-999,0.0,0.0,100,0.00,,,-99.99,WeatherLink 5.5,2013-03-17 06:49:00,
2013-03-17 02:55:00,56.8,56.8,30.07,North,-999,0.0,0.0,100,0.00,,,-99.99,WeatherLink 5.5,2013-03-17 06:55:00,
2013-03-17 03:00:00,56.6,56.6,30.07,North,-999,0.0,0.0,100,0.00,,,-99.99,WeatherLink 5.5,2013-03-17 07:00:00,
2013-03-17 03:04:00,56.7,56.7,30.07,North,-999,0.0,0.0,100,0.00,,,-99.99,WeatherLink 5.5,2013-03-17 07:04:00,
2013-03-17 03:05:00,56.7,56.7,30.06,North,-999,0.0,0.0,100,0.00,,,-99.99,WeatherLink 5.5,2013-03-17 07:05:00,
2013-03-17 03:10:00,56.7,56.7,30.06,North,-999,0.0,0.0,100,0.00,,,-99.99,WeatherLink 5.5,2013-03-17 07:10:00,
2013-03-17 03:15:00,56.6,56.6,30.07,North,-999,0.0,0.0,100,0.00,,,-99.99,WeatherLink 5.5,2013-03-17 07:15:00,
2013-03-17 03:19:00,56.6,56.6,30.07,North,-999,0.0,0.0,100,0.00,,,-99.99,WeatherLink 5.5,2013-03-17 07:19:00,
2013-03-17 03:25:00,56.5,56.5,30.07,North,-999,0.0,0.0,100,0.00,,,-99.99,WeatherLink 5.5,2013-03-17 07:25:00,
2013-03-17 03:34:00,56.7,56.7,30.06,North,-999,0.0,0.0,100,0.00,,,-99.99,WeatherLink 5.5,2013-03-17 07:34:00,
2013-03-17 03:39:00,56.8,56.8,30.06,North,-999,0.0,0.0,100,0.00,,,-99.99,WeatherLink 5.5,2013-03-17 07:39:00,
2013-03-17 03:45:00,57.2,57.2,30.06,North,-999,0.0,0.0,100,0.00,,,-99.99,WeatherLink 5.5,2013-03-17 07:45:00,
2013-03-17 03:49:00,57.0,57.0,30.06,North,-999,0.0,0.0,100,0.00,,,-99.99,WeatherLink 5.5,2013-03-17 07:49:00,
2013-03-17 03:55:00,57.5,57.5,30.06,North,-999,0.0,0.0,100,0.00,,,-99.99,WeatherLink 5.5,2013-03-17 07:55:00,
2013-03-17 04:04:00,57.8,57.8,30.06,North,-999,0.0,0.0,100,0.00,,,-99.99,WeatherLink 5.5,2013-03-17 08:04:00,
2013-03-17 04:05:00,58.4,58.4,30.06,North,-999,0.0,0.0,100,0.00,,,-99.99,WeatherLink 5.5,2013-03-17 08:05:00,
2013-03-17 04:15:00,58.7,58.7,30.06,North,-999,0.0,0.0,100,0.00,,,-99.99,WeatherLink 5.5,2013-03-17 08:15:00,
2013-03-17 04:20:00,59.2,59.2,30.06,North,-999,0.0,0.0,100,0.00,,,-99.99,WeatherLink 5.5,2013-03-17 08:20:00,
2013-03-17 04:24:00,58.9,58.9,30.06,North,-999,0.0,0.0,100,0.00,,,-99.99,WeatherLink 5.5,2013-03-17 08:24:00,
2013-03-17 04:25:00,59.4,59.4,30.06,North,-999,0.0,0.0,100,0.00,,,-99.99,WeatherLink 5.5,2013-03-17 08:25:00,
2013-03-17 04:30:00,59.4,59.4,30.06,North,-999,0.0,0.0,100,0.00,,,-99.99,WeatherLink 5.5,2013-03-17 08:30:00,
2013-03-17 04:39:00,59.5,59.5,30.06,North,-999,0.0,0.0,100,0.00,,,-99.99,WeatherLink 5.5,2013-03-17 08:39:00,
2013-03-17 04:40:00,59.9,59.9,30.06,North,-999,0.0,0.0,100,0.00,,,-99.99,WeatherLink 5.5,2013-03-17 08:40:00,
2013-03-17 04:50:00,60.1,60.1,30.06,North,-999,0.0,0.0,100,0.00,,,-99.99,WeatherLink 5.5,2013-03-17 08:50:00,
2013-03-17 04:55:00,60.4,60.4,30.06,North,-999,0.0,0.0,100,0.00,,,-99.99,WeatherLink 5.5,2013-03-17 08:55:00,
2013-03-17 04:59:00,60.2,60.2,30.05,North,-999,0.0,0.0,100,0.00,,,-99.99,WeatherLink 5.5,2013-03-17 08:59:00,
2013-03-17 05:05:00,60.5,60.5,30.06,North,-999,0.0,0.0,100,0.00,,,-99.99,WeatherLink 5.5,2013-03-17 09:05:00,
2013-03-17 05:14:00,60.6,60.6,30.06,North,-999,0.0,0.0,100,0.00,,,-99.99,WeatherLink 5.5,2013-03-17 09:14:00,
2013-03-17 05:25:00,60.7,60.7,30.06,North,-999,0.0,0.0,100,0.00,,,-99.99,WeatherLink 5.5,2013-03-17 09:25:00,
2013-03-17 05:30:00,60.9,60.9,30.06,North,-999,0.0,1.0,100,0.00,,,-99.99,WeatherLink 5.5,2013-03-17 09:30:00,
2013-03-17 05:35:00,60.9,60.9,30.06,North,-999,0.0,1.0,100,0.00,,,-99.99,WeatherLink 5.5,2013-03-17 09:35:00,
2013-03-17 05:44:00,61.0,61.0,30.06,North,-999,0.0,0.0,100,0.00,,,-99.99,WeatherLink 5.5,2013-03-17 09:44:00,
2013-03-17 05:45:00,61.1,61.1,30.06,North,-999,0.0,0.0,100,0.00,,,-99.99,WeatherLink 5.5,2013-03-17 09:45:00,
2013-03-17 05:55:00,61.2,61.2,30.06,North,-999,0.0,0.0,100,0.00,,,-99.99,WeatherLink 5.5,2013-03-17 09:55:00,
2013-03-17 06:00:00,61.2,61.2,30.06,North,-999,0.0,0.0,100,0.00,,,-99.99,WeatherLink 5.5,2013-03-17 10:00:00,
2013-03-17 06:04:00,61.2,61.2,30.06,North,-999,0.0,0.0,100,0.00,,,-99.99,WeatherLink 5.5,2013-03-17 10:04:00,
2013-03-17 06:10:00,61.2,61.2,30.06,North,-999,0.0,0.0,100,0.00,,,-99.99,WeatherLink 5.5,2013-03-17 10:10:00,
2013-03-17 06:19:00,61.2,61.2,30.07,North,-999,0.0,0.0,100,0.00,,,-99.99,WeatherLink 5.5,2013-03-17 10:19:00,
2013-03-17 06:20:00,61.3,61.3,30.07,North,-999,0.0,0.0,100,0.00,,,-99.99,WeatherLink 5.5,2013-03-17 10:20:00,
2013-03-17 06:25:00,61.4,61.4,30.07,North,-999,0.0,0.0,100,0.00,,,-99.99,WeatherLink 5.5,2013-03-17 10:25:00,
2013-03-17 06:30:00,61.4,61.4,30.07,North,-999,0.0,0.0,100,0.00,,,-99.99,WeatherLink 5.5,2013-03-17 10:30:00,
2013-03-17 06:40:00,61.5,61.5,30.07,North,-999,0.0,0.0,100,0.00,,,-99.99,WeatherLink 5.5,2013-03-17 10:40:00,
2013-03-17 06:45:00,61.6,61.6,30.07,North,-999,0.0,0.0,100,0.00,,,-99.99,WeatherLink 5.5,2013-03-17 10:45:00,
2013-03-17 06:49:00,61.5,61.5,30.07,North,-999,0.0,0.0,100,0.00,,,-99.99,WeatherLink 5.5,2013-03-17 10:49:00,
2013-03-17 06:55:00,61.5,61.5,30.07,North,-999,0.0,0.0,100,0.00,,,-99.99,WeatherLink 5.5,2013-03-17 10:55:00,
2013-03-17 07:00:00,61.6,61.6,30.07,North,-999,0.0,0.0,100,0.00,,,-99.99,WeatherLink 5.5,2013-03-17 11:00:00,
2013-03-17 07:04:00,61.6,61.6,30.07,North,-999,0.0,0.0,100,0.00,,,-99.99,WeatherLink 5.5,2013-03-17 11:04:00,
2013-03-17 07:05:00,61.6,61.6,30.07,North,-999,0.0,0.0,100,0.00,,,-99.99,WeatherLink 5.5,2013-03-17 11:05:00,
2013-03-17 07:10:00,61.6,61.6,30.07,North,-999,0.0,0.0,100,0.00,,,-99.99,WeatherLink 5.5,2013-03-17 11:10:00,
2013-03-17 07:15:00,61.4,61.4,30.07,North,-999,0.0,0.0,100,0.00,,,-99.99,WeatherLink 5.5,2013-03-17 11:15:00,
2013-03-17 07:19:00,61.5,61.5,30.07,North,-999,0.0,0.0,100,0.00,,,-99.99,WeatherLink 5.5,2013-03-17 11:19:00,
2013-03-17 07:25:00,61.4,61.4,30.08,North,-999,0.0,0.0,100,0.00,,,-99.99,WeatherLink 5.5,2013-03-17 11:25:00,
2013-03-17 07:30:00,61.4,61.4,30.07,North,-999,0.0,0.0,100,0.00,,,-99.99,WeatherLink 5.5,2013-03-17 11:30:00,
2013-03-17 07:34:00,61.4,61.4,30.07,North,-999,0.0,0.0,100,0.00,,,-99.99,WeatherLink 5.5,2013-03-17 11:34:00,
2013-03-17 07:35:00,61.4,61.4,30.07,North,-999,0.0,0.0,100,0.00,,,-99.99,WeatherLink 5.5,2013-03-17 11:35:00,
2013-03-17 07:40:00,61.4,61.4,30.07,North,-999,0.0,0.0,100,0.00,,,-99.99,WeatherLink 5.5,2013-03-17 11:40:00,
2013-03-17 07:45:00,61.3,61.3,30.07,North,-999,0.0,0.0,100,0.00,,,-99.99,WeatherLink 5.5,2013-03-17 11:45:00,
2013-03-17 07:49:00,61.4,61.4,30.07,North,-999,0.0,0.0,100,0.00,,,-99.99,WeatherLink 5.5,2013-03-17 11:49:00,
2013-03-17 07:55:00,61.4,61.4,30.08,North,-999,0.0,0.0,100,0.00,,,-99.99,WeatherLink 5.5,2013-03-17 11:55:00,
2013-03-17 08:00:00,61.6,61.6,30.09,North,-999,0.0,0.0,100,0.00,,,-99.99,WeatherLink 5.5,2013-03-17 12:00:00,
2013-03-17 08:04:00,61.4,61.4,30.08,North,-999,0.0,0.0,100,0.00,,,-99.99,WeatherLink 5.5,2013-03-17 12:04:00,
2013-03-17 08:10:00,61.7,61.7,30.09,North,-999,0.0,0.0,100,0.00,,,-99.99,WeatherLink 5.5,2013-03-17 12:10:00,
2013-03-17 08:19:00,61.9,61.9,30.10,North,-999,0.0,0.0,100,0.00,,,-99.99,WeatherLink 5.5,2013-03-17 12:19:00,
2013-03-17 08:24:00,62.0,62.0,30.10,North,-999,0.0,0.0,100,0.00,,,-99.99,WeatherLink 5.5,2013-03-17 12:24:00,
2013-03-17 08:25:00,62.3,62.3,30.10,North,-999,0.0,0.0,100,0.00,,,-99.99,WeatherLink 5.5,2013-03-17 12:25:00,
2013-03-17 08:30:00,62.4,62.4,30.10,North,-999,0.0,0.0,100,0.00,,,-99.99,WeatherLink 5.5,2013-03-17 12:30:00,
2013-03-17 08:35:00,62.4,62.4,30.10,North,-999,0.0,0.0,100,0.00,,,-99.99,WeatherLink 5.5,2013-03-17 12:35:00,
2013-03-17 08:44:00,62.7,62.7,30.10,North,-999,0.0,0.0,100,0.00,,,-99.99,WeatherLink 5.5,2013-03-17 12:44:00,
2013-03-17 08:50:00,63.6,63.6,30.10,SSE,157,0.0,2.0,100,0.00,,,-99.99,WeatherLink 5.5,2013-03-17 12:50:00,
2013-03-17 08:54:00,63.3,63.3,30.10,North,-999,0.0,0.0,100,0.00,,,-99.99,WeatherLink 5.5,2013-03-17 12:54:00,
2013-03-17 09:00:00,63.8,63.8,30.10,North,-999,0.0,0.0,100,0.00,,,-99.99,WeatherLink 5.5,2013-03-17 13:00:00,
2013-03-17 09:09:00,64.1,64.1,30.11,North,-999,0.0,0.0,100,0.00,,,-99.99,WeatherLink 5.5,2013-03-17 13:09:00,
2013-03-17 09:10:00,64.9,64.9,30.11,North,-999,0.0,0.0,100,0.00,,,-99.99,WeatherLink 5.5,2013-03-17 13:10:00,
2013-03-17 09:15:00,65.4,65.4,30.11,North,-999,0.0,0.0,100,0.00,,,-99.99,WeatherLink 5.5,2013-03-17 13:15:00,
2013-03-17 09:20:00,65.4,65.4,30.11,North,-999,0.0,0.0,100,0.00,,,-99.99,WeatherLink 5.5,2013-03-17 13:20:00,
2013-03-17 09:29:00,65.8,65.8,30.12,North,-999,0.0,0.0,100,0.00,,,-99.99,WeatherLink 5.5,2013-03-17 13:29:00,
2013-03-17 09:30:00,67.5,67.5,30.12,North,-999,0.0,0.0,100,0.00,,,-99.99,WeatherLink 5.5,2013-03-17 13:30:00,
2013-03-17 09:35:00,67.9,67.9,30.13,North,-999,0.0,0.0,100,0.00,,,-99.99,WeatherLink 5.5,2013-03-17 13:35:00,
2013-03-17 09:40:00,67.9,67.9,30.13,North,-999,0.0,0.0,100,0.00,,,-99.99,WeatherLink 5.5,2013-03-17 13:40:00,
2013-03-17 09:45:00,68.5,68.5,30.13,North,-999,0.0,0.0,100,0.00,,,-99.99,WeatherLink 5.5,2013-03-17 13:45:00,
2013-03-17 09:49:00,68.2,68.2,30.13,North,-999,0.0,0.0,100,0.00,,,-99.99,WeatherLink 5.5,2013-03-17 13:49:00,
2013-03-17 09:50:00,68.8,68.8,30.13,SSE,157,0.0,1.0,100,0.00,,,-99.99,WeatherLink 5.5,2013-03-17 13:50:00,
2013-03-17 09:55:00,68.8,68.8,30.13,SSE,157,0.0,1.0,100,0.00,,,-99.99,WeatherLink 5.5,2013-03-17 13:55:00,
2013-03-17 10:04:00,69.2,69.2,30.13,SSE,157,0.0,3.0,100,0.00,,,-99.99,WeatherLink 5.5,2013-03-17 14:04:00,
2013-03-17 10:05:00,69.7,69.7,30.12,North,-999,0.0,0.0,100,0.00,,,-99.99,WeatherLink 5.5,2013-03-17 14:05:00,
2013-03-17 10:15:00,70.0,70.0,30.12,North,-999,0.0,0.0,100,0.00,,,-99.99,WeatherLink 5.5,2013-03-17 14:15:00,
2013-03-17 10:20:00,70.3,70.3,30.12,SSE,157,0.0,3.0,100,0.00,,,-99.99,WeatherLink 5.5,2013-03-17 14:20:00,
2013-03-17 10:24:00,70.1,70.1,30.12,North,-999,0.0,0.0,100,0.00,,,-99.99,WeatherLink 5.5,2013-03-17 14:24:00,
2013-03-17 10:30:00,70.4,70.4,30.12,SSE,157,0.0,1.0,100,0.00,,,-99.99,WeatherLink 5.5,2013-03-17 14:30:00,
2013-03-17 10:35:00,70.4,70.4,30.12,SSE,157,0.0,1.0,100,0.00,,,-99.99,WeatherLink 5.5,2013-03-17 14:35:00,
2013-03-17 10:39:00,70.4,70.4,30.12,SSE,157,0.0,1.0,100,0.00,,,-99.99,WeatherLink 5.5,2013-03-17 14:39:00,
2013-03-17 10:40:00,70.3,70.3,30.12,North,-999,0.0,0.0,100,0.00,,,-99.99,WeatherLink 5.5,2013-03-17 14:40:00,
2013-03-17 10:45:00,70.3,70.3,30.12,North,-999,0.0,0.0,100,0.00,,,-99.99,WeatherLink 5.5,2013-03-17 14:45:00,
2013-03-17 10:50:00,71.3,71.3,30.11,SE,135,1.0,4.0,100,0.00,,,-99.99,WeatherLink 5.5,2013-03-17 14:50:00,
2013-03-17 10:54:00,70.4,-99.9,30.11,SSE,157,0.0,2.0,-999,0.00,,,-99.99,WeatherLink 5.5,2013-03-17 14:54:00,
2013-03-17 10:55:00,71.8,71.8,30.11,SE,135,0.0,3.0,100,0.00,,,-99.99,WeatherLink 5.5,2013-03-17 14:55:00,
2013-03-17 11:00:00,71.8,71.8,30.11,SE,135,0.0,3.0,100,0.00,,,-99.99,WeatherLink 5.5,2013-03-17 15:00:00,
2013-03-17 11:09:00,72.0,72.0,30.11,SE,135,0.0,1.0,100,0.00,,,-99.99,WeatherLink 5.5,2013-03-17 15:09:00,
2013-03-17 11:10:00,72.9,-99.9,30.11,SSE,157,3.0,12.0,-999,0.00,,,-99.99,WeatherLink 5.5,2013-03-17 15:10:00,
2013-03-17 11:20:00,73.7,73.7,30.11,SSE,157,4.0,12.0,100,0.00,,,-99.99,WeatherLink 5.5,2013-03-17 15:20:00,
2013-03-17 11:25:00,73.8,-99.9,30.11,SSE,157,1.0,6.0,-999,0.00,,,-99.99,WeatherLink 5.5,2013-03-17 15:25:00,
2013-03-17 11:29:00,73.8,73.8,30.11,ESE,112,3.0,11.0,100,0.00,,,-99.99,WeatherLink 5.5,2013-03-17 15:29:00,
2013-03-17 11:30:00,74.0,-99.9,30.11,ESE,112,4.0,12.0,-999,0.00,,,-99.99,WeatherLink 5.5,2013-03-17 15:30:00,
2013-03-17 11:35:00,74.0,-99.9,30.11,ESE,112,4.0,12.0,-999,0.00,,,-99.99,WeatherLink 5.5,2013-03-17 15:35:00,
2013-03-17 11:44:00,74.0,-99.9,30.11,ESE,112,4.0,12.0,-999,0.00,,,-99.99,WeatherLink 5.5,2013-03-17 15:44:00,
2013-03-17 11:45:00,75.8,68.1,30.11,SE,135,5.0,15.0,77,0.00,,,-99.99,WeatherLink 5.5,2013-03-17 15:45:00,
2013-03-17 11:55:00,76.2,75.0,30.11,ESE,112,5.0,11.0,96,0.00,,,-99.99,WeatherLink 5.5,2013-03-17 15:55:00,
2013-03-17 12:00:00,75.7,73.2,30.12,SE,135,5.0,11.0,92,0.00,,,-99.99,WeatherLink 5.5,2013-03-17 16:00:00,
2013-03-17 12:04:00,76.1,74.2,30.12,ESE,112,5.0,12.0,94,0.00,,,-99.99,WeatherLink 5.5,2013-03-17 16:04:00,
2013-03-17 12:05:00,75.7,73.2,30.12,ESE,112,3.0,12.0,92,0.00,,,-99.99,WeatherLink 5.5,2013-03-17 16:05:00,
2013-03-17 12:10:00,75.7,73.2,30.12,ESE,112,3.0,12.0,92,0.00,,,-99.99,WeatherLink 5.5,2013-03-17 16:10:00,
2013-03-17 12:19:00,75.9,72.4,30.12,East,90,5.0,12.0,89,0.00,,,-99.99,WeatherLink 5.5,2013-03-17 16:19:00,
2013-03-17 12:20:00,75.2,-99.9,30.11,East,90,3.0,13.0,-999,0.00,,,-99.99,WeatherLink 5.5,2013-03-17 16:20:00,
2013-03-17 12:30:00,74.9,-99.9,30.11,ESE,112,4.0,13.0,-999,0.00,,,-99.99,WeatherLink 5.5,2013-03-17 16:30:00,
2013-03-17 12:35:00,75.4,70.2,30.11,ESE,112,4.0,11.0,84,0.00,,,-99.99,WeatherLink 5.5,2013-03-17 16:35:00,
2013-03-17 12:39:00,75.1,70.6,30.11,ESE,112,4.0,12.0,86,0.00,,,-99.99,WeatherLink 5.5,2013-03-17 16:39:00,
2013-03-17 12:45:00,75.8,70.3,30.11,ESE,112,4.0,10.0,83,0.00,,,-99.99,WeatherLink 5.5,2013-03-17 16:45:00,
2013-03-17 12:50:00,76.4,69.4,30.10,SE,135,5.0,12.0,79,0.00,,,-99.99,WeatherLink 5.5,2013-03-17 16:50:00,
2013-03-17 12:54:00,75.9,70.0,30.10,SE,135,5.0,15.0,82,0.00,,,-99.99,WeatherLink 5.5,2013-03-17 16:54:00,
2013-03-17 12:55:00,76.6,69.6,30.10,East,90,7.0,14.0,79,0.00,,,-99.99,WeatherLink 5.5,2013-03-17 16:55:00,
2013-03-17 13:00:00,76.6,69.6,30.10,East,90,7.0,14.0,79,0.00,,,-99.99,WeatherLink 5.5,2013-03-17 17:00:00,
2013-03-17 13:09:00,76.6,69.2,30.10,SSE,157,4.0,15.0,78,0.00,,,-99.99,WeatherLink 5.5,2013-03-17 17:09:00,
2013-03-17 13:10:00,77.2,68.7,30.10,ESE,112,5.0,10.0,75,0.00,,,-99.99,WeatherLink 5.5,2013-03-17 17:10:00,
2013-03-17 13:20:00,76.9,67.2,30.10,ESE,112,5.0,12.0,72,0.00,,,-99.99,WeatherLink 5.5,2013-03-17 17:20:00,
2013-03-17 13:25:00,77.2,66.7,30.10,SE,135,5.0,13.0,70,0.00,,,-99.99,WeatherLink 5.5,2013-03-17 17:25:00,
2013-03-17 13:29:00,76.9,67.2,30.10,ESE,112,4.0,11.0,72,0.00,,,-99.99,WeatherLink 5.5,2013-03-17 17:29:00,
2013-03-17 13:30:00,77.3,66.7,30.10,SE,135,6.0,16.0,70,0.00,,,-99.99,WeatherLink 5.5,2013-03-17 17:30:00,
2013-03-17 13:35:00,77.3,66.7,30.10,SE,135,6.0,16.0,70,0.00,,,-99.99,WeatherLink 5.5,2013-03-17 17:35:00,
2013-03-17 13:45:00,77.1,66.1,30.10,SE,135,3.0,9.0,69,0.00,,,-99.99,WeatherLink 5.5,2013-03-17 17:45:00,
2013-03-17 13:50:00,76.5,64.7,30.09,East,90,3.0,8.0,67,0.00,,,-99.99,WeatherLink 5.5,2013-03-17 17:50:00,
2013-03-17 13:54:00,77.0,65.2,30.09,ESE,112,5.0,10.0,67,0.00,,,-99.99,WeatherLink 5.5,2013-03-17 17:54:00,
2013-03-17 13:55:00,76.5,63.9,30.09,SSE,157,5.0,12.0,65,0.00,,,-99.99,WeatherLink 5.5,2013-03-17 17:55:00,
2013-03-17 14:00:00,76.5,63.9,30.09,SSE,157,5.0,12.0,65,0.00,,,-99.99,WeatherLink 5.5,2013-03-17 18:00:00,
2013-03-17 14:10:00,76.5,64.3,30.08,SSE,157,5.0,11.0,66,0.00,,,-99.99,WeatherLink 5.5,2013-03-17 18:10:00,
2013-03-17 14:15:00,77.0,63.9,30.08,SE,135,5.0,12.0,64,0.00,,,-99.99,WeatherLink 5.5,2013-03-17 18:15:00,
2013-03-17 14:19:00,77.1,64.0,30.08,SE,135,6.0,12.0,64,0.00,,,-99.99,WeatherLink 5.5,2013-03-17 18:19:00,
2013-03-17 14:20:00,76.9,63.8,30.07,ESE,112,4.0,14.0,64,0.00,,,-99.99,WeatherLink 5.5,2013-03-17 18:20:00,
2013-03-17 14:25:00,76.9,63.8,30.07,ESE,112,4.0,14.0,64,0.00,,,-99.99,WeatherLink 5.5,2013-03-17 18:25:00,
2013-03-17 14:34:00,77.1,64.4,30.07,SSE,157,4.0,13.0,65,0.00,,,-99.99,WeatherLink 5.5,2013-03-17 18:34:00,
2013-03-17 14:35:00,78.7,64.6,30.06,SSE,157,6.0,15.0,62,0.00,,,-99.99,WeatherLink 5.5,2013-03-17 18:35:00,
2013-03-17 14:45:00,79.4,64.3,30.07,SSE,157,4.0,12.0,60,0.00,,,-99.99,WeatherLink 5.5,2013-03-17 18:45:00,
2013-03-17 14:50:00,78.7,63.2,30.06,ESE,112,6.0,15.0,59,0.00,,,-99.99,WeatherLink 5.5,2013-03-17 18:50:00,
2013-03-17 14:54:00,79.0,63.4,30.06,SSE,157,6.0,12.0,59,0.00,,,-99.99,WeatherLink 5.5,2013-03-17 18:54:00,
2013-03-17 15:00:00,78.9,64.3,30.06,ESE,112,4.0,15.0,61,0.00,,,-99.99,WeatherLink 5.5,2013-03-17 19:00:00,
2013-03-17 15:05:00,79.4,63.8,30.05,SE,135,5.0,12.0,59,0.00,,,-99.99,WeatherLink 5.5,2013-03-17 19:05:00,
2013-03-17 15:09:00,79.6,64.0,30.06,ESE,112,6.0,14.0,59,0.00,,,-99.99,WeatherLink 5.5,2013-03-17 19:09:00,
2013-03-17 15:15:00,79.2,63.1,30.05,ESE,112,6.0,14.0,58,0.00,,,-99.99,WeatherLink 5.5,2013-03-17 19:15:00,
2013-03-17 15:20:00,78.4,62.9,30.04,SE,135,2.0,8.0,59,0.00,,,-99.99,WeatherLink 5.5,2013-03-17 19:20:00,
2013-03-17 15:24:00,78.4,62.9,30.05,ESE,112,5.0,15.0,59,0.00,,,-99.99,WeatherLink 5.5,2013-03-17 19:24:00,
2013-03-17 15:30:00,78.3,62.8,30.04,SSE,157,6.0,12.0,59,0.00,,,-99.99,WeatherLink 5.5,2013-03-17 19:30:00,
2013-03-17 15:35:00,78.1,62.1,30.03,SE,135,4.0,11.0,58,0.00,,,-99.99,WeatherLink 5.5,2013-03-17 19:35:00,
2013-03-17 15:39:00,78.2,62.2,30.03,SSE,157,3.0,11.0,58,0.00,,,-99.99,WeatherLink 5.5,2013-03-17 19:39:00,
2013-03-17 15:45:00,78.4,61.9,30.03,SE,135,4.0,10.0,57,0.00,,,-99.99,WeatherLink 5.5,2013-03-17 19:45:00,
2013-03-17 15:50:00,78.6,62.6,30.03,SE,135,4.0,12.0,58,0.00,,,-99.99,WeatherLink 5.5,2013-03-17 19:50:00,
2013-03-17 15:54:00,78.7,61.7,30.02,ESE,112,3.0,10.0,56,0.00,,,-99.99,WeatherLink 5.5,2013-03-17 19:54:00,
2013-03-17 15:55:00,78.7,60.7,30.03,SE,135,8.0,15.0,54,0.00,,,-99.99,WeatherLink 5.5,2013-03-17 19:55:00,
2013-03-17 16:00:00,78.7,60.7,30.03,SE,135,8.0,15.0,54,0.00,,,-99.99,WeatherLink 5.5,2013-03-17 20:00:00,
2013-03-17 16:09:00,78.1,60.1,30.03,ESE,112,5.0,11.0,54,0.00,,,-99.99,WeatherLink 5.5,2013-03-17 20:09:00,
2013-03-17 16:10:00,77.8,60.3,30.04,ESE,112,4.0,10.0,55,0.00,,,-99.99,WeatherLink 5.5,2013-03-17 20:10:00,
2013-03-17 16:20:00,77.4,60.0,30.03,SSE,157,4.0,9.0,55,0.00,,,-99.99,WeatherLink 5.5,2013-03-17 20:20:00,
2013-03-17 16:25:00,78.3,60.8,30.03,ESE,112,3.0,11.0,55,0.00,,,-99.99,WeatherLink 5.5,2013-03-17 20:25:00,
2013-03-17 16:29:00,77.9,60.4,30.03,SSE,157,2.0,12.0,55,0.00,,,-99.99,WeatherLink 5.5,2013-03-17 20:29:00,
2013-03-17 16:30:00,77.9,60.9,30.03,East,90,5.0,11.0,56,0.00,,,-99.99,WeatherLink 5.5,2013-03-17 20:30:00,
2013-03-17 16:35:00,77.9,60.9,30.03,East,90,5.0,11.0,56,0.00,,,-99.99,WeatherLink 5.5,2013-03-17 20:35:00,
2013-03-17 16:40:00,77.0,-99.9,30.02,ESE,112,4.0,11.0,-999,0.00,,,-99.99,WeatherLink 5.5,2013-03-17 20:40:00,
2013-03-17 16:44:00,77.3,60.4,30.03,ESE,112,4.0,9.0,56,0.00,,,-99.99,WeatherLink 5.5,2013-03-17 20:44:00,
2013-03-17 16:45:00,76.8,-99.9,30.02,ESE,112,4.0,11.0,-999,0.00,,,-99.99,WeatherLink 5.5,2013-03-17 20:45:00,
2013-03-17 16:50:00,76.8,-99.9,30.02,ESE,112,4.0,11.0,-999,0.00,,,-99.99,WeatherLink 5.5,2013-03-17 20:50:00,
2013-03-17 16:59:00,76.5,60.6,30.02,ESE,112,2.0,8.0,58,0.00,,,-99.99,WeatherLink 5.5,2013-03-17 20:59:00,
2013-03-17 17:00:00,75.7,60.4,30.02,ESE,112,4.0,12.0,59,0.00,,,-99.99,WeatherLink 5.5,2013-03-17 21:00:00,
2013-03-17 17:05:00,75.5,60.2,30.03,ESE,112,1.0,7.0,59,0.00,,,-99.99,WeatherLink 5.5,2013-03-17 21:05:00,
2013-03-17 17:10:00,75.5,60.2,30.03,ESE,112,1.0,7.0,59,0.00,,,-99.99,WeatherLink 5.5,2013-03-17 21:10:00,
2013-03-17 17:15:00,75.4,59.6,30.03,SE,135,4.0,10.0,58,0.00,,,-99.99,WeatherLink 5.5,2013-03-17 21:15:00,
2013-03-17 17:19:00,75.5,60.2,30.03,ESE,112,3.0,10.0,59,0.00,,,-99.99,WeatherLink 5.5,2013-03-17 21:19:00,
2013-03-17 17:25:00,75.2,59.4,30.03,SE,135,3.0,12.0,58,0.00,,,-99.99,WeatherLink 5.5,2013-03-17 21:25:00,
2013-03-17 17:30:00,74.8,59.0,30.03,SE,135,2.0,7.0,58,0.00,,,-99.99,WeatherLink 5.5,2013-03-17 21:30:00,
2013-03-17 17:35:00,74.8,59.0,30.03,SE,135,2.0,7.0,58,0.00,,,-99.99,WeatherLink 5.5,2013-03-17 21:35:00,
2013-03-17 17:44:00,75.0,59.2,30.03,SE,135,2.0,9.0,58,0.00,,,-99.99,WeatherLink 5.5,2013-03-17 21:44:00,
2013-03-17 17:50:00,74.6,58.4,30.03,ESE,112,4.0,10.0,57,0.00,,,-99.99,WeatherLink 5.5,2013-03-17 21:50:00,
2013-03-17 17:54:00,75.0,58.7,30.03,ESE,112,3.0,11.0,57,0.00,,,-99.99,WeatherLink 5.5,2013-03-17 21:54:00,
2013-03-17 18:00:00,74.3,58.6,30.03,SSE,157,3.0,12.0,58,0.00,,,-99.99,WeatherLink 5.5,2013-03-17 22:00:00,
2013-03-17 18:05:00,73.9,57.7,30.03,ESE,112,3.0,9.0,57,0.00,,,-99.99,WeatherLink 5.5,2013-03-17 22:05:00,
2013-03-17 18:09:00,74.1,58.4,30.03,ESE,112,1.0,10.0,58,0.00,,,-99.99,WeatherLink 5.5,2013-03-17 22:09:00,
2013-03-17 18:15:00,73.8,58.1,30.03,SSE,157,2.0,8.0,58,0.00,,,-99.99,WeatherLink 5.5,2013-03-17 22:15:00,
2013-03-17 18:20:00,73.9,57.7,30.03,SSE,157,2.0,8.0,57,0.00,,,-99.99,WeatherLink 5.5,2013-03-17 22:20:00,
2013-03-17 18:24:00,73.9,57.7,30.03,SSE,157,4.0,10.0,57,0.00,,,-99.99,WeatherLink 5.5,2013-03-17 22:24:00,
2013-03-17 18:30:00,73.7,58.0,30.03,SSE,157,3.0,10.0,58,0.00,,,-99.99,WeatherLink 5.5,2013-03-17 22:30:00,
2013-03-17 18:35:00,73.3,58.1,30.04,SE,135,3.0,10.0,59,0.00,,,-99.99,WeatherLink 5.5,2013-03-17 22:35:00,
2013-03-17 18:39:00,73.5,57.8,30.03,SE,135,2.0,10.0,58,0.00,,,-99.99,WeatherLink 5.5,2013-03-17 22:39:00,
2013-03-17 18:40:00,73.1,57.9,30.03,SE,135,2.0,9.0,59,0.00,,,-99.99,WeatherLink 5.5,2013-03-17 22:40:00,
2013-03-17 18:45:00,73.1,57.9,30.03,SE,135,2.0,9.0,59,0.00,,,-99.99,WeatherLink 5.5,2013-03-17 22:45:00,
2013-03-17 18:54:00,73.0,57.8,30.02,SE,135,3.0,10.0,59,0.00,,,-99.99,WeatherLink 5.5,2013-03-17 22:54:00,
2013-03-17 18:55:00,72.5,58.7,30.03,SE,135,3.0,10.0,62,0.00,,,-99.99,WeatherLink 5.5,2013-03-17 22:55:00,
2013-03-17 19:00:00,72.3,58.5,30.03,ESE,112,0.0,6.0,62,0.00,,,-99.99,WeatherLink 5.5,2013-03-17 23:00:00,
2013-03-17 19:05:00,72.3,58.5,30.03,ESE,112,0.0,6.0,62,0.00,,,-99.99,WeatherLink 5.5,2013-03-17 23:05:00,
2013-03-17 19:14:00,72.1,58.8,30.02,ESE,112,3.0,10.0,63,0.00,,,-99.99,WeatherLink 5.5,2013-03-17 23:14:00,
2013-03-17 19:15:00,71.7,58.9,30.02,ESE,112,3.0,10.0,64,0.00,,,-99.99,WeatherLink 5.5,2013-03-17 23:15:00,
2013-03-17 19:25:00,71.4,59.0,30.02,ESE,112,3.0,11.0,65,0.00,,,-99.99,WeatherLink 5.5,2013-03-17 23:25:00,
2013-03-17 19:30:00,70.4,58.5,30.02,SE,135,1.0,5.0,66,0.00,,,-99.99,WeatherLink 5.5,2013-03-17 23:30:00,
2013-03-17 19:34:00,71.0,59.1,30.02,SE,135,1.0,6.0,66,0.00,,,-99.99,WeatherLink 5.5,2013-03-17 23:34:00,
2013-03-17 19:35:00,70.8,58.9,30.01,SE,135,1.0,8.0,66,0.00,,,-99.99,WeatherLink 5.5,2013-03-17 23:35:00,
2013-03-17 19:40:00,70.8,58.9,30.01,SE,135,1.0,8.0,66,0.00,,,-99.99,WeatherLink 5.5,2013-03-17 23:40:00,
2013-03-17 19:49:00,70.5,58.6,30.02,SE,135,1.0,5.0,66,0.00,,,-99.99,WeatherLink 5.5,2013-03-17 23:49:00,
2013-03-17 19:50:00,70.1,58.6,30.02,SE,135,0.0,1.0,67,0.00,,,-99.99,WeatherLink 5.5,2013-03-17 23:50:00,
2013-03-17 20:00:00,69.9,58.9,30.02,SE,135,0.0,5.0,68,0.00,,,-99.99,WeatherLink 5.5,2013-03-18 00:00:00,
2013-03-17 20:05:00,69.6,58.6,30.03,SE,135,0.0,3.0,68,0.00,,,-99.99,WeatherLink 5.5,2013-03-18 00:05:00,
2013-03-17 20:09:00,69.8,58.3,30.03,SE,135,0.0,4.0,67,0.00,,,-99.99,WeatherLink 5.5,2013-03-18 00:09:00,
2013-03-17 20:15:00,69.4,58.8,30.03,SE,135,0.0,3.0,69,0.00,,,-99.99,WeatherLink 5.5,2013-03-18 00:15:00,
2013-03-17 20:20:00,69.1,58.9,30.03,North,-999,0.0,0.0,70,0.00,,,-99.99,WeatherLink 5.5,2013-03-18 00:20:00,
2013-03-17 20:24:00,69.3,58.7,30.03,North,-999,0.0,1.0,69,0.00,,,-99.99,WeatherLink 5.5,2013-03-18 00:24:00,
2013-03-17 20:25:00,69.1,58.9,30.03,SE,135,0.0,1.0,70,0.00,,,-99.99,WeatherLink 5.5,2013-03-18 00:25:00,
2013-03-17 20:30:00,69.1,58.9,30.03,SE,135,0.0,1.0,70,0.00,,,-99.99,WeatherLink 5.5,2013-03-18 00:30:00,
2013-03-17 20:35:00,68.8,59.0,30.03,North,-999,0.0,0.0,71,0.00,,,-99.99,WeatherLink 5.5,2013-03-18 00:35:00,
2013-03-17 20:39:00,68.9,58.7,30.03,North,-999,0.0,0.0,70,0.00,,,-99.99,WeatherLink 5.5,2013-03-18 00:39:00,
2013-03-17 20:40:00,68.8,59.0,30.03,North,-999,0.0,0.0,71,0.00,,,-99.99,WeatherLink 5.5,2013-03-18 00:40:00,
2013-03-17 20:45:00,68.8,59.0,30.03,North,-999,0.0,0.0,71,0.00,,,-99.99,WeatherLink 5.5,2013-03-18 00:45:00,
2013-03-17 20:50:00,68.6,59.2,30.03,North,-999,0.0,0.0,72,0.00,,,-99.99,WeatherLink 5.5,2013-03-18 00:50:00,
2013-03-17 20:54:00,68.7,59.3,30.03,North,-999,0.0,0.0,72,0.00,,,-99.99,WeatherLink 5.5,2013-03-18 00:54:00,
2013-03-17 20:55:00,68.5,59.5,30.03,North,-999,0.0,0.0,73,0.00,,,-99.99,WeatherLink 5.5,2013-03-18 00:55:00,
2013-03-17 21:00:00,68.5,59.5,30.03,North,-999,0.0,0.0,73,0.00,,,-99.99,WeatherLink 5.5,2013-03-18 01:00:00,
2013-03-17 21:10:00,68.4,59.8,30.03,North,-999,0.0,0.0,74,0.00,,,-99.99,WeatherLink 5.5,2013-03-18 01:10:00,
2013-03-17 21:20:00,68.2,60.0,30.03,North,-999,0.0,0.0,75,0.00,,,-99.99,WeatherLink 5.5,2013-03-18 01:20:00,
2013-03-17 21:25:00,68.1,60.2,30.03,SE,135,0.0,2.0,76,0.00,,,-99.99,WeatherLink 5.5,2013-03-18 01:25:00,
2013-03-17 21:29:00,68.2,60.3,30.03,North,-999,0.0,1.0,76,0.00,,,-99.99,WeatherLink 5.5,2013-03-18 01:29:00,
2013-03-17 21:30:00,68.0,60.5,30.03,North,-999,0.0,0.0,77,0.00,,,-99.99,WeatherLink 5.5,2013-03-18 01:30:00,
2013-03-17 21:35:00,68.0,60.5,30.03,North,-999,0.0,0.0,77,0.00,,,-99.99,WeatherLink 5.5,2013-03-18 01:35:00,
2013-03-17 21:44:00,68.1,60.6,30.03,SE,135,0.0,2.0,77,0.00,,,-99.99,WeatherLink 5.5,2013-03-18 01:44:00,
2013-03-17 21:45:00,68.3,61.2,30.04,North,-999,0.0,0.0,78,0.00,,,-99.99,WeatherLink 5.5,2013-03-18 01:45:00,
2013-03-17 21:50:00,68.4,61.6,30.05,North,-999,0.0,0.0,79,0.00,,,-99.99,WeatherLink 5.5,2013-03-18 01:50:00,
2013-03-17 21:55:00,68.4,61.6,30.05,North,-999,0.0,0.0,79,0.00,,,-99.99,WeatherLink 5.5,2013-03-18 01:55:00,
2013-03-17 22:00:00,68.5,62.1,30.05,SE,135,0.0,3.0,80,0.00,,,-99.99,WeatherLink 5.5,2013-03-18 02:00:00,
2013-03-17 22:04:00,68.5,61.7,30.05,North,-999,0.0,0.0,79,0.00,,,-99.99,WeatherLink 5.5,2013-03-18 02:04:00,
2013-03-17 22:05:00,68.6,62.9,30.05,SE,135,1.0,4.0,82,0.00,,,-99.99,WeatherLink 5.5,2013-03-18 02:05:00,
2013-03-17 22:10:00,68.6,62.9,30.05,SE,135,1.0,4.0,82,0.00,,,-99.99,WeatherLink 5.5,2013-03-18 02:10:00,
2013-03-17 22:15:00,68.5,63.1,30.05,SE,135,0.0,3.0,83,0.00,,,-99.99,WeatherLink 5.5,2013-03-18 02:15:00,
2013-03-17 22:19:00,68.6,62.9,30.05,SE,135,0.0,3.0,82,0.00,,,-99.99,WeatherLink 5.5,2013-03-18 02:19:00,
2013-03-17 22:20:00,68.4,63.4,30.05,SE,135,0.0,4.0,84,0.00,,,-99.99,WeatherLink 5.5,2013-03-18 02:20:00,
2013-03-17 22:25:00,68.3,63.6,30.06,SE,135,0.0,4.0,85,0.00,,,-99.99,WeatherLink 5.5,2013-03-18 02:25:00,
2013-03-17 22:30:00,68.2,63.9,30.06,North,-999,0.0,0.0,86,0.00,,,-99.99,WeatherLink 5.5,2013-03-18 02:30:00,
2013-03-17 22:35:00,68.0,63.7,30.06,North,-999,0.0,0.0,86,0.00,,,-99.99,WeatherLink 5.5,2013-03-18 02:35:00,
2013-03-17 22:40:00,67.8,63.8,30.06,SE,135,0.0,2.0,87,0.00,,,-99.99,WeatherLink 5.5,2013-03-18 02:40:00,
2013-03-17 22:45:00,67.6,63.9,30.06,SE,135,0.0,3.0,88,0.00,,,-99.99,WeatherLink 5.5,2013-03-18 02:45:00,
2013-03-17 22:50:00,67.4,63.7,30.06,SE,135,0.0,2.0,88,0.00,,,-99.99,WeatherLink 5.5,2013-03-18 02:50:00,
2013-03-17 22:55:00,67.2,63.8,30.06,SE,135,0.0,3.0,89,0.00,,,-99.99,WeatherLink 5.5,2013-03-18 02:55:00,
2013-03-17 23:00:00,67.1,64.1,30.06,SE,135,0.0,2.0,90,0.00,,,-99.99,WeatherLink 5.5,2013-03-18 03:00:00,
2013-03-17 23:05:00,66.9,63.9,30.06,SE,135,0.0,2.0,90,0.00,,,-99.99,WeatherLink 5.5,2013-03-18 03:05:00,
2013-03-17 23:10:00,66.8,64.1,30.06,North,-999,0.0,0.0,91,0.00,,,-99.99,WeatherLink 5.5,2013-03-18 03:10:00,
2013-03-17 23:15:00,66.7,64.0,30.06,SE,135,0.0,3.0,91,0.00,,,-99.99,WeatherLink 5.5,2013-03-18 03:15:00,
2013-03-17 23:20:00,66.6,64.2,30.06,SE,135,0.0,3.0,92,0.00,,,-99.99,WeatherLink 5.5,2013-03-18 03:20:00,
2013-03-17 23:25:00,66.6,64.5,30.06,SE,135,0.0,3.0,93,0.00,,,-99.99,WeatherLink 5.5,2013-03-18 03:25:00,
2013-03-17 23:30:00,66.4,64.3,30.06,SE,135,0.0,1.0,93,0.00,,,-99.99,WeatherLink 5.5,2013-03-18 03:30:00,
2013-03-17 23:35:00,66.3,64.5,30.05,SE,135,0.0,4.0,94,0.00,,,-99.99,WeatherLink 5.5,2013-03-18 03:35:00,
2013-03-17 23:40:00,66.3,64.5,30.06,SE,135,0.0,1.0,94,0.00,,,-99.99,WeatherLink 5.5,2013-03-18 03:40:00,
2013-03-17 23:45:00,66.3,64.8,30.06,SE,135,0.0,4.0,95,0.00,,,-99.99,WeatherLink 5.5,2013-03-18 03:45:00,
2013-03-17 23:50:00,66.3,65.1,30.05,SE,135,0.0,5.0,96,0.00,,,-99.99,WeatherLink 5.5,2013-03-18 03:50:00,
2013-03-17 23:55:00,66.3,65.1,30.06,North,-999,0.0,0.0,96,0.00,,,-99.99,WeatherLink 5.5,2013-03-18 03:55:00,